Time,TemperatureF,DewpointF,PressureIn,WindDirection,WindDirectionDegrees,WindSpeedMPH,WindSpeedGustMPH,Humidity,HourlyPrecipIn,Conditions,Clouds,dailyrainin,SoftwareType,DateUTC
2013-09-16 00:02:00,80.8,67.5,28.53,East,90,7.0,7.0,64,0.00,,,0.00,meteohub,2013-09-16 05:02:00,
2013-09-16 00:07:00,80.8,67.5,28.54,East,90,2.0,7.0,64,0.00,,,0.00,meteohub,2013-09-16 05:07:00,
2013-09-16 00:12:00,80.6,67.3,28.54,SE,135,1.0,7.0,64,0.00,,,0.00,meteohub,2013-09-16 05:12:00,
2013-09-16 00:17:00,80.6,67.3,28.54,East,90,1.0,7.0,64,0.00,,,0.00,meteohub,2013-09-16 05:17:00,
2013-09-16 00:22:00,80.6,67.3,28.54,SE,135,2.0,3.0,64,0.00,,,0.00,meteohub,2013-09-16 05:22:00,
2013-09-16 00:27:00,80.6,67.3,28.54,East,90,1.0,3.0,64,0.00,,,0.00,meteohub,2013-09-16 05:27:00,
2013-09-16 00:32:00,80.1,66.7,28.54,East,90,1.0,2.0,64,0.00,,,0.00,meteohub,2013-09-16 05:32:00,
2013-09-16 00:37:00,80.2,66.9,28.54,East,90,1.0,2.0,64,0.00,,,0.00,meteohub,2013-09-16 05:37:00,
2013-09-16 00:42:00,80.1,66.7,28.54,NE,45,1.0,1.0,64,0.00,,,0.00,meteohub,2013-09-16 05:42:00,
2013-09-16 00:47:00,79.9,66.6,28.54,SE,135,1.0,1.0,64,0.00,,,0.00,meteohub,2013-09-16 05:47:00,
2013-09-16 00:52:00,79.9,66.6,28.54,North,0,1.0,1.0,64,0.00,,,0.00,meteohub,2013-09-16 05:52:00,
2013-09-16 00:57:00,79.7,66.4,28.53,East,90,1.0,1.0,64,0.00,,,0.00,meteohub,2013-09-16 05:57:00,
2013-09-16 01:02:00,79.9,66.6,28.53,East,90,1.0,1.0,64,0.00,,,0.00,meteohub,2013-09-16 06:02:00,
2013-09-16 01:07:00,79.5,66.7,28.53,East,90,1.0,1.0,65,0.00,,,0.00,meteohub,2013-09-16 06:07:00,
2013-09-16 01:12:00,79.5,66.7,28.53,East,90,0.0,1.0,65,0.00,,,0.00,meteohub,2013-09-16 06:12:00,
2013-09-16 01:17:00,79.3,66.9,28.53,East,90,1.0,1.0,66,0.00,,,0.00,meteohub,2013-09-16 06:17:00,
2013-09-16 01:22:00,78.6,66.7,28.53,East,90,1.0,1.0,67,0.00,,,0.00,meteohub,2013-09-16 06:22:00,
2013-09-16 01:27:00,78.6,66.7,28.53,East,90,1.0,1.0,67,0.00,,,0.00,meteohub,2013-09-16 06:27:00,
2013-09-16 01:32:00,78.6,67.1,28.53,East,90,1.0,1.0,68,0.00,,,0.00,meteohub,2013-09-16 06:32:00,
2013-09-16 01:37:00,78.4,66.6,28.53,East,90,1.0,1.0,67,0.00,,,0.00,meteohub,2013-09-16 06:37:00,
2013-09-16 01:42:00,78.6,66.7,28.53,East,90,1.0,1.0,67,0.00,,,0.00,meteohub,2013-09-16 06:42:00,
2013-09-16 01:47:00,78.6,66.7,28.53,East,90,1.0,1.0,67,0.00,,,0.00,meteohub,2013-09-16 06:47:00,
2013-09-16 01:52:00,78.4,66.6,28.53,East,90,1.0,1.0,67,0.00,,,0.00,meteohub,2013-09-16 06:52:00,
2013-09-16 01:57:00,78.3,66.4,28.53,North,0,1.0,1.0,67,0.00,,,0.00,meteohub,2013-09-16 06:57:00,
2013-09-16 02:02:00,78.1,66.2,28.54,East,90,1.0,1.0,67,0.00,,,0.00,meteohub,2013-09-16 07:02:00,
2013-09-16 02:07:00,77.9,66.0,28.54,NE,45,0.0,1.0,67,0.00,,,0.00,meteohub,2013-09-16 07:07:00,
2013-09-16 02:12:00,77.7,66.4,28.54,NE,45,0.0,1.0,68,0.00,,,0.00,meteohub,2013-09-16 07:12:00,
2013-09-16 02:17:00,77.7,66.4,28.54,East,90,1.0,1.0,68,0.00,,,0.00,meteohub,2013-09-16 07:17:00,
2013-09-16 02:22:00,77.7,66.4,28.55,NE,45,1.0,1.0,68,0.00,,,0.00,meteohub,2013-09-16 07:22:00,
2013-09-16 02:27:00,77.5,66.2,28.54,East,90,1.0,1.0,68,0.00,,,0.00,meteohub,2013-09-16 07:27:00,
2013-09-16 02:32:00,77.7,66.4,28.54,East,90,1.0,1.0,68,0.00,,,0.00,meteohub,2013-09-16 07:32:00,
2013-09-16 02:37:00,77.7,66.4,28.55,East,90,1.0,1.0,68,0.00,,,0.00,meteohub,2013-09-16 07:37:00,
2013-09-16 02:42:00,77.9,66.6,28.55,SE,135,1.0,1.0,68,0.00,,,0.00,meteohub,2013-09-16 07:42:00,
2013-09-16 02:47:00,78.1,66.7,28.55,East,90,1.0,2.0,68,0.00,,,0.00,meteohub,2013-09-16 07:47:00,
2013-09-16 02:52:00,78.1,66.2,28.55,East,90,1.0,2.0,67,0.00,,,0.00,meteohub,2013-09-16 07:52:00,
2013-09-16 02:57:00,78.1,66.2,28.55,NE,45,1.0,2.0,67,0.00,,,0.00,meteohub,2013-09-16 07:57:00,
2013-09-16 03:02:00,78.1,66.2,28.56,SE,135,1.0,1.0,67,0.00,,,0.00,meteohub,2013-09-16 08:02:00,
2013-09-16 03:07:00,78.6,66.7,28.56,SE,135,1.0,1.0,67,0.00,,,0.00,meteohub,2013-09-16 08:07:00,
2013-09-16 03:12:00,78.4,66.2,28.56,East,90,1.0,1.0,66,0.00,,,0.00,meteohub,2013-09-16 08:12:00,
2013-09-16 03:17:00,78.4,66.2,28.56,SE,135,1.0,1.0,66,0.00,,,0.00,meteohub,2013-09-16 08:17:00,
2013-09-16 03:22:00,78.6,66.4,28.57,North,0,1.0,1.0,66,0.00,,,0.00,meteohub,2013-09-16 08:22:00,
2013-09-16 03:27:00,78.6,66.7,28.57,SW,225,1.0,2.0,67,0.00,,,0.00,meteohub,2013-09-16 08:27:00,
2013-09-16 03:32:00,78.4,66.9,28.57,NW,315,4.0,5.0,68,0.00,,,0.00,meteohub,2013-09-16 08:32:00,
2013-09-16 03:37:00,77.7,66.7,28.57,West,270,9.0,9.0,69,0.00,,,0.00,meteohub,2013-09-16 08:37:00,
2013-09-16 03:42:00,77.9,67.3,28.57,NW,315,5.0,9.0,70,0.00,,,0.00,meteohub,2013-09-16 08:42:00,
2013-09-16 03:47:00,77.4,67.3,28.58,SSE,158,4.0,12.0,71,0.00,,,0.00,meteohub,2013-09-16 08:47:00,
2013-09-16 03:52:00,76.5,67.6,28.58,NE,45,8.0,12.0,74,0.00,,,0.00,meteohub,2013-09-16 08:52:00,
2013-09-16 03:58:00,75.7,67.6,28.58,North,0,6.0,11.0,76,0.00,,,0.00,meteohub,2013-09-16 08:58:00,
2013-09-16 04:03:00,75.4,67.6,28.58,NW,315,4.0,11.0,77,0.00,,,0.00,meteohub,2013-09-16 09:03:00,
2013-09-16 04:07:00,75.0,67.6,28.58,North,0,11.0,11.0,78,0.00,,,0.00,meteohub,2013-09-16 09:07:00,
2013-09-16 04:13:00,74.1,67.1,28.58,North,0,4.0,15.0,79,0.00,,,0.00,meteohub,2013-09-16 09:13:00,
2013-09-16 04:18:00,74.3,67.6,28.58,NE,45,7.0,15.0,80,0.00,,,0.00,meteohub,2013-09-16 09:18:00,
2013-09-16 04:23:00,74.1,67.6,28.58,NW,315,1.0,15.0,80,0.00,,,0.00,meteohub,2013-09-16 09:23:00,
2013-09-16 04:28:00,74.1,67.6,28.58,NE,45,11.0,13.0,80,0.00,,,0.00,meteohub,2013-09-16 09:28:00,
2013-09-16 04:33:00,74.1,68.0,28.58,East,90,4.0,11.0,81,0.00,,,0.00,meteohub,2013-09-16 09:33:00,
2013-09-16 04:38:00,74.1,68.0,28.58,NW,315,7.0,11.0,81,0.00,,,0.00,meteohub,2013-09-16 09:38:00,
2013-09-16 04:43:00,73.8,67.6,28.58,North,0,6.0,11.0,81,0.00,,,0.00,meteohub,2013-09-16 09:43:00,
2013-09-16 04:48:00,73.8,67.3,28.58,NE,45,2.0,8.0,80,0.00,,,0.00,meteohub,2013-09-16 09:48:00,
2013-09-16 04:53:00,73.8,67.6,28.58,NE,45,4.0,9.0,81,0.00,,,0.00,meteohub,2013-09-16 09:53:00,
2013-09-16 04:58:00,73.6,67.5,28.58,NE,45,2.0,9.0,81,0.00,,,0.00,meteohub,2013-09-16 09:58:00,
2013-09-16 05:03:00,73.4,67.6,28.58,NE,45,4.0,4.0,82,0.00,,,0.00,meteohub,2013-09-16 10:03:00,
2013-09-16 05:08:00,73.0,67.6,28.58,NE,45,6.0,6.0,83,0.00,,,0.00,meteohub,2013-09-16 10:08:00,
2013-09-16 05:13:00,72.7,67.3,28.59,NE,45,8.0,8.0,83,0.00,,,0.00,meteohub,2013-09-16 10:13:00,
2013-09-16 05:18:00,72.3,67.3,28.59,NE,45,6.0,8.0,84,0.00,,,0.00,meteohub,2013-09-16 10:18:00,
2013-09-16 05:23:00,72.1,67.1,28.58,NE,45,1.0,8.0,84,0.00,,,0.00,meteohub,2013-09-16 10:23:00,
2013-09-16 05:28:00,72.1,67.1,28.59,NE,45,8.0,8.0,84,0.00,,,0.00,meteohub,2013-09-16 10:28:00,
2013-09-16 05:33:00,72.1,67.1,28.59,NE,45,5.0,8.0,84,0.00,,,0.00,meteohub,2013-09-16 10:33:00,
2013-09-16 05:38:00,72.1,67.1,28.59,NE,45,4.0,8.0,84,0.00,,,0.00,meteohub,2013-09-16 10:38:00,
2013-09-16 05:43:00,72.1,67.1,28.59,North,0,1.0,8.0,84,0.00,,,0.00,meteohub,2013-09-16 10:43:00,
2013-09-16 05:48:00,72.0,66.9,28.59,NE,45,10.0,10.0,84,0.00,,,0.00,meteohub,2013-09-16 10:48:00,
2013-09-16 05:53:00,71.8,66.7,28.59,NE,45,1.0,10.0,84,0.00,,,0.00,meteohub,2013-09-16 10:53:00,
2013-09-16 05:58:00,72.1,67.5,28.60,NW,315,3.0,10.0,85,0.00,,,0.00,meteohub,2013-09-16 10:58:00,
2013-09-16 06:03:00,72.0,67.3,28.60,NW,315,4.0,10.0,85,0.00,,,0.00,meteohub,2013-09-16 11:03:00,
2013-09-16 06:08:00,72.0,66.9,28.60,NW,315,5.0,7.0,84,0.00,,,0.00,meteohub,2013-09-16 11:08:00,
2013-09-16 06:13:00,72.0,67.3,28.61,NE,45,4.0,7.0,85,0.00,,,0.00,meteohub,2013-09-16 11:13:00,
2013-09-16 06:18:00,72.1,67.6,28.61,North,0,3.0,7.0,86,0.00,,,0.00,meteohub,2013-09-16 11:18:00,
2013-09-16 06:23:00,71.6,67.1,28.61,North,0,4.0,7.0,86,0.00,,,0.00,meteohub,2013-09-16 11:23:00,
2013-09-16 06:28:00,71.8,67.3,28.61,NW,315,6.0,6.0,86,0.00,,,0.00,meteohub,2013-09-16 11:28:00,
2013-09-16 06:33:00,71.6,67.1,28.61,NW,315,6.0,8.0,86,0.00,,,0.00,meteohub,2013-09-16 11:33:00,
2013-09-16 06:38:00,71.6,67.1,28.61,NE,45,2.0,8.0,86,0.00,,,0.00,meteohub,2013-09-16 11:38:00,
2013-09-16 06:43:00,71.4,67.1,28.61,NW,315,3.0,8.0,86,0.00,,,0.00,meteohub,2013-09-16 11:43:00,
2013-09-16 06:48:00,71.8,67.3,28.61,North,0,15.0,15.0,86,0.00,,,0.00,meteohub,2013-09-16 11:48:00,
2013-09-16 06:53:00,71.4,67.1,28.61,North,0,10.0,10.0,86,0.00,,,0.00,meteohub,2013-09-16 11:53:00,
2013-09-16 06:58:00,71.2,66.9,28.62,East,90,6.0,15.0,86,0.00,,,0.00,meteohub,2013-09-16 11:58:00,
2013-09-16 07:03:00,71.4,67.1,28.62,NE,45,5.0,15.0,86,0.00,,,0.00,meteohub,2013-09-16 12:03:00,
2013-09-16 07:08:00,71.1,66.7,28.62,NE,45,2.0,10.0,86,0.00,,,0.00,meteohub,2013-09-16 12:08:00,
2013-09-16 07:13:00,71.1,66.9,28.62,NE,45,2.0,8.0,87,0.00,,,0.00,meteohub,2013-09-16 12:13:00,
2013-09-16 07:18:00,71.1,66.9,28.61,NE,45,6.0,6.0,87,0.00,,,0.00,meteohub,2013-09-16 12:18:00,
2013-09-16 07:23:00,71.1,66.7,28.61,North,0,5.0,10.0,86,0.00,,,0.00,meteohub,2013-09-16 12:23:00,
2013-09-16 07:28:00,71.2,66.9,28.62,NE,45,2.0,10.0,86,0.00,,,0.00,meteohub,2013-09-16 12:28:00,
2013-09-16 07:33:00,71.1,66.7,28.62,East,90,1.0,9.0,86,0.00,,,0.00,meteohub,2013-09-16 12:33:00,
2013-09-16 07:38:00,71.2,66.9,28.62,North,0,5.0,8.0,86,0.00,,,0.00,meteohub,2013-09-16 12:38:00,
2013-09-16 07:43:00,70.9,66.6,28.62,NE,45,1.0,8.0,86,0.00,,,0.00,meteohub,2013-09-16 12:43:00,
2013-09-16 07:48:00,71.2,66.9,28.62,ENE,68,2.0,6.0,86,0.00,,,0.00,meteohub,2013-09-16 12:48:00,
2013-09-16 07:53:00,71.4,67.1,28.62,North,0,2.0,6.0,86,0.00,,,0.00,meteohub,2013-09-16 12:53:00,
2013-09-16 07:58:00,71.2,66.6,28.62,North,0,4.0,6.0,85,0.00,,,0.00,meteohub,2013-09-16 12:58:00,
2013-09-16 08:03:00,71.2,66.6,28.62,North,0,4.0,7.0,85,0.00,,,0.00,meteohub,2013-09-16 13:03:00,
2013-09-16 08:08:00,71.4,67.1,28.62,North,0,4.0,7.0,86,0.00,,,0.00,meteohub,2013-09-16 13:08:00,
2013-09-16 08:13:00,71.1,66.7,28.63,East,90,4.0,7.0,86,0.00,,,0.00,meteohub,2013-09-16 13:13:00,
2013-09-16 08:18:00,71.4,67.1,28.63,East,90,7.0,8.0,86,0.00,,,0.00,meteohub,2013-09-16 13:18:00,
2013-09-16 08:24:00,71.6,67.1,28.63,NE,45,8.0,8.0,86,0.00,,,0.00,meteohub,2013-09-16 13:24:00,
2013-09-16 08:29:00,72.0,67.3,28.64,NE,45,11.0,11.0,85,0.00,,,0.00,meteohub,2013-09-16 13:29:00,
2013-09-16 08:34:00,72.1,67.5,28.64,East,90,1.0,9.0,85,0.00,,,0.00,meteohub,2013-09-16 13:34:00,
2013-09-16 08:39:00,72.3,67.6,28.64,East,90,4.0,11.0,85,0.00,,,0.00,meteohub,2013-09-16 13:39:00,
2013-09-16 08:44:00,72.7,67.3,28.64,North,0,6.0,11.0,83,0.00,,,0.00,meteohub,2013-09-16 13:44:00,
2013-09-16 08:49:00,73.2,67.1,28.64,NE,45,8.0,8.0,81,0.00,,,0.00,meteohub,2013-09-16 13:49:00,
2013-09-16 08:54:00,73.8,67.6,28.64,East,90,1.0,13.0,81,0.00,,,0.00,meteohub,2013-09-16 13:54:00,
2013-09-16 08:59:00,74.7,67.3,28.64,NE,45,4.0,13.0,78,0.00,,,0.00,meteohub,2013-09-16 13:59:00,
2013-09-16 09:04:00,74.7,66.9,28.63,NE,45,11.0,13.0,77,0.00,,,0.00,meteohub,2013-09-16 14:04:00,
2013-09-16 09:09:00,75.2,67.1,28.64,East,90,8.0,8.0,76,0.00,,,0.00,meteohub,2013-09-16 14:09:00,
2013-09-16 09:14:00,75.4,67.3,28.64,East,90,8.0,11.0,76,0.00,,,0.00,meteohub,2013-09-16 14:14:00,
2013-09-16 09:19:00,76.1,67.6,28.64,East,90,5.0,11.0,75,0.00,,,0.00,meteohub,2013-09-16 14:19:00,
2013-09-16 09:24:00,76.3,66.9,28.64,SE,135,7.0,11.0,73,0.00,,,0.00,meteohub,2013-09-16 14:24:00,
2013-09-16 09:29:00,76.6,67.3,28.64,NE,45,4.0,11.0,73,0.00,,,0.00,meteohub,2013-09-16 14:29:00,
2013-09-16 09:34:00,77.0,67.3,28.63,East,90,6.0,9.0,72,0.00,,,0.00,meteohub,2013-09-16 14:34:00,
2013-09-16 09:39:00,77.5,67.5,28.64,NE,45,5.0,11.0,71,0.00,,,0.00,meteohub,2013-09-16 14:39:00,
2013-09-16 09:44:00,77.9,67.3,28.64,East,90,5.0,11.0,70,0.00,,,0.00,meteohub,2013-09-16 14:44:00,
2013-09-16 09:49:00,78.1,67.1,28.64,East,90,6.0,12.0,69,0.00,,,0.00,meteohub,2013-09-16 14:49:00,
2013-09-16 09:54:00,78.8,67.3,28.64,East,90,8.0,12.0,68,0.00,,,0.00,meteohub,2013-09-16 14:54:00,
2013-09-16 09:59:00,78.8,66.9,28.64,North,0,8.0,12.0,67,0.00,,,0.00,meteohub,2013-09-16 14:59:00,
2013-09-16 10:04:00,79.5,67.6,28.64,NE,45,6.0,10.0,67,0.00,,,0.00,meteohub,2013-09-16 15:04:00,
2013-09-16 10:09:00,80.2,66.9,28.64,East,90,6.0,10.0,64,0.00,,,0.00,meteohub,2013-09-16 15:09:00,
2013-09-16 10:14:00,80.4,67.1,28.64,North,0,6.0,10.0,64,0.00,,,0.00,meteohub,2013-09-16 15:14:00,
2013-09-16 10:19:00,81.1,66.9,28.64,East,90,1.0,8.0,62,0.00,,,0.00,meteohub,2013-09-16 15:19:00,
2013-09-16 10:24:00,81.7,66.9,28.64,East,90,8.0,8.0,61,0.00,,,0.00,meteohub,2013-09-16 15:24:00,
2013-09-16 10:29:00,82.2,66.9,28.64,ENE,68,4.0,8.0,60,0.00,,,0.00,meteohub,2013-09-16 15:29:00,
2013-09-16 10:34:00,82.4,67.1,28.64,North,0,4.0,8.0,60,0.00,,,0.00,meteohub,2013-09-16 15:34:00,
2013-09-16 10:39:00,82.8,67.5,28.64,NE,45,4.0,8.0,60,0.00,,,0.00,meteohub,2013-09-16 15:39:00,
2013-09-16 10:44:00,83.1,67.3,28.64,East,90,5.0,8.0,59,0.00,,,0.00,meteohub,2013-09-16 15:44:00,
2013-09-16 10:49:00,84.2,67.3,28.64,NE,45,8.0,8.0,57,0.00,,,0.00,meteohub,2013-09-16 15:49:00,
2013-09-16 10:55:00,84.0,66.6,28.64,NE,45,3.0,8.0,56,0.00,,,0.00,meteohub,2013-09-16 15:55:00,
2013-09-16 11:00:00,84.7,66.7,28.64,NE,45,8.0,9.0,55,0.00,,,0.00,meteohub,2013-09-16 16:00:00,
2013-09-16 11:05:00,85.1,66.6,28.64,East,90,5.0,9.0,54,0.00,,,0.00,meteohub,2013-09-16 16:05:00,
2013-09-16 11:10:00,86.0,66.4,28.64,NE,45,6.0,9.0,52,0.00,,,0.00,meteohub,2013-09-16 16:10:00,
2013-09-16 11:15:00,86.7,65.8,28.64,NE,45,5.0,8.0,50,0.00,,,0.00,meteohub,2013-09-16 16:15:00,
2013-09-16 11:20:00,86.9,65.5,28.64,North,0,7.0,8.0,49,0.00,,,0.00,meteohub,2013-09-16 16:20:00,
2013-09-16 11:25:00,87.3,65.1,28.64,East,90,11.0,11.0,48,0.00,,,0.00,meteohub,2013-09-16 16:25:00,
2013-09-16 11:30:00,87.1,65.7,28.64,East,90,5.0,8.0,49,0.00,,,0.00,meteohub,2013-09-16 16:30:00,
2013-09-16 11:35:00,87.3,65.1,28.64,SE,135,9.0,11.0,48,0.00,,,0.00,meteohub,2013-09-16 16:35:00,
2013-09-16 11:40:00,87.4,65.8,28.64,North,0,5.0,12.0,49,0.00,,,0.00,meteohub,2013-09-16 16:40:00,
2013-09-16 11:45:00,87.8,66.2,28.64,East,90,9.0,12.0,49,0.00,,,0.00,meteohub,2013-09-16 16:45:00,
2013-09-16 11:50:00,88.2,66.0,28.64,East,90,5.0,12.0,48,0.00,,,0.00,meteohub,2013-09-16 16:50:00,
2013-09-16 11:55:00,88.7,65.8,28.64,NE,45,2.0,12.0,47,0.00,,,0.00,meteohub,2013-09-16 16:55:00,
2013-09-16 12:00:00,89.1,65.7,28.64,North,0,5.0,9.0,46,0.00,,,0.00,meteohub,2013-09-16 17:00:00,
2013-09-16 12:05:00,89.6,66.0,28.64,East,90,5.0,8.0,46,0.00,,,0.00,meteohub,2013-09-16 17:05:00,
2013-09-16 12:10:00,90.0,65.8,28.64,East,90,9.0,9.0,45,0.00,,,0.00,meteohub,2013-09-16 17:10:00,
2013-09-16 12:15:00,90.3,65.5,28.63,SE,135,4.0,9.0,44,0.00,,,0.00,meteohub,2013-09-16 17:15:00,
2013-09-16 12:20:00,91.0,65.5,28.63,NE,45,5.0,9.0,43,0.00,,,0.00,meteohub,2013-09-16 17:20:00,
2013-09-16 12:25:00,90.7,65.1,28.63,East,90,1.0,10.0,43,0.00,,,0.00,meteohub,2013-09-16 17:25:00,
2013-09-16 12:30:00,91.2,65.7,28.63,ESE,113,8.0,10.0,43,0.00,,,0.00,meteohub,2013-09-16 17:30:00,
2013-09-16 12:35:00,91.2,64.9,28.63,East,90,4.0,10.0,42,0.00,,,0.00,meteohub,2013-09-16 17:35:00,
2013-09-16 12:40:00,91.8,64.8,28.63,East,90,1.0,10.0,41,0.00,,,0.00,meteohub,2013-09-16 17:40:00,
2013-09-16 12:45:00,90.9,65.3,28.63,East,90,1.0,10.0,43,0.00,,,0.00,meteohub,2013-09-16 17:45:00,
2013-09-16 12:50:00,90.9,65.3,28.63,East,90,1.0,8.0,43,0.00,,,0.00,meteohub,2013-09-16 17:50:00,
2013-09-16 12:55:00,91.0,65.5,28.63,NW,315,1.0,8.0,43,0.00,,,0.00,meteohub,2013-09-16 17:55:00,
2013-09-16 13:00:00,91.0,64.8,28.62,East,90,4.0,4.0,42,0.00,,,0.00,meteohub,2013-09-16 18:00:00,
2013-09-16 13:05:00,91.6,64.6,28.61,East,90,11.0,11.0,41,0.00,,,0.00,meteohub,2013-09-16 18:05:00,
2013-09-16 13:10:00,91.6,64.6,28.61,SE,135,1.0,11.0,41,0.00,,,0.00,meteohub,2013-09-16 18:10:00,
2013-09-16 13:15:00,91.6,65.8,28.61,NE,45,2.0,11.0,43,0.00,,,0.00,meteohub,2013-09-16 18:15:00,
2013-09-16 13:20:00,93.0,65.8,28.61,East,90,4.0,11.0,41,0.00,,,0.00,meteohub,2013-09-16 18:20:00,
2013-09-16 13:26:00,93.6,65.7,28.61,North,0,1.0,6.0,40,0.00,,,0.00,meteohub,2013-09-16 18:26:00,
2013-09-16 13:31:00,94.6,64.4,28.61,South,180,3.0,6.0,37,0.00,,,0.00,meteohub,2013-09-16 18:31:00,
2013-09-16 13:36:00,94.1,63.9,28.60,East,90,8.0,8.0,37,0.00,,,0.00,meteohub,2013-09-16 18:36:00,
2013-09-16 13:41:00,92.5,63.9,28.60,East,90,4.0,8.0,39,0.00,,,0.00,meteohub,2013-09-16 18:41:00,
2013-09-16 13:46:00,91.9,64.2,28.60,NE,45,1.0,8.0,40,0.00,,,0.00,meteohub,2013-09-16 18:46:00,
2013-09-16 13:51:00,90.7,63.7,28.60,East,90,1.0,8.0,41,0.00,,,0.00,meteohub,2013-09-16 18:51:00,
2013-09-16 13:56:00,89.6,64.2,28.60,SE,135,1.0,6.0,43,0.00,,,0.00,meteohub,2013-09-16 18:56:00,
2013-09-16 14:01:00,89.4,64.6,28.59,North,0,1.0,6.0,44,0.00,,,0.00,meteohub,2013-09-16 19:01:00,
2013-09-16 14:06:00,89.6,64.8,28.59,North,0,1.0,2.0,44,0.00,,,0.00,meteohub,2013-09-16 19:06:00,
2013-09-16 14:11:00,90.1,63.9,28.58,WSW,248,2.0,4.0,42,0.00,,,0.00,meteohub,2013-09-16 19:11:00,
2013-09-16 14:16:00,91.2,64.9,28.58,East,90,1.0,6.0,42,0.00,,,0.00,meteohub,2013-09-16 19:16:00,
2013-09-16 14:21:00,91.2,64.9,28.58,NE,45,8.0,8.0,42,0.00,,,0.00,meteohub,2013-09-16 19:21:00,
2013-09-16 14:26:00,90.9,63.9,28.58,SE,135,4.0,8.0,41,0.00,,,0.00,meteohub,2013-09-16 19:26:00,
2013-09-16 14:31:00,92.5,65.3,28.57,East,90,1.0,8.0,41,0.00,,,0.00,meteohub,2013-09-16 19:31:00,
2013-09-16 14:36:00,92.7,64.0,28.57,North,0,1.0,10.0,39,0.00,,,0.00,meteohub,2013-09-16 19:36:00,
2013-09-16 14:41:00,93.0,64.4,28.57,East,90,5.0,10.0,39,0.00,,,0.00,meteohub,2013-09-16 19:41:00,
2013-09-16 14:46:00,94.1,64.6,28.56,East,90,8.0,10.0,38,0.00,,,0.00,meteohub,2013-09-16 19:46:00,
2013-09-16 14:51:00,94.1,63.9,28.56,NE,45,1.0,8.0,37,0.00,,,0.00,meteohub,2013-09-16 19:51:00,
2013-09-16 14:56:00,94.8,63.7,28.56,NE,45,8.0,8.0,36,0.00,,,0.00,meteohub,2013-09-16 19:56:00,
2013-09-16 15:01:00,95.0,63.9,28.56,NE,45,1.0,8.0,36,0.00,,,0.00,meteohub,2013-09-16 20:01:00,
2013-09-16 15:06:00,93.4,63.1,28.55,East,90,10.0,10.0,37,0.00,,,0.00,meteohub,2013-09-16 20:06:00,
2013-09-16 15:11:00,92.3,63.7,28.55,NNW,338,1.0,10.0,39,0.00,,,0.00,meteohub,2013-09-16 20:11:00,
2013-09-16 15:16:00,92.5,63.9,28.54,NE,45,2.0,10.0,39,0.00,,,0.00,meteohub,2013-09-16 20:16:00,
2013-09-16 15:21:00,93.2,63.9,28.54,East,90,8.0,10.0,38,0.00,,,0.00,meteohub,2013-09-16 20:21:00,
2013-09-16 15:26:00,94.3,64.0,28.54,NE,45,8.0,10.0,37,0.00,,,0.00,meteohub,2013-09-16 20:26:00,
2013-09-16 15:31:00,93.6,64.2,28.54,North,0,2.0,11.0,38,0.00,,,0.00,meteohub,2013-09-16 20:31:00,
2013-09-16 15:36:00,92.5,63.9,28.54,East,90,1.0,11.0,39,0.00,,,0.00,meteohub,2013-09-16 20:36:00,
2013-09-16 15:41:00,92.1,63.7,28.53,NE,45,5.0,11.0,39,0.00,,,0.00,meteohub,2013-09-16 20:41:00,
2013-09-16 15:46:00,92.3,63.7,28.53,SE,135,1.0,6.0,39,0.00,,,0.00,meteohub,2013-09-16 20:46:00,
2013-09-16 15:51:00,91.9,63.5,28.53,East,90,4.0,6.0,39,0.00,,,0.00,meteohub,2013-09-16 20:51:00,
2013-09-16 15:56:00,91.8,64.0,28.53,NW,315,1.0,11.0,40,0.00,,,0.00,meteohub,2013-09-16 20:56:00,
2013-09-16 16:01:00,91.6,63.9,28.53,East,90,3.0,11.0,40,0.00,,,0.00,meteohub,2013-09-16 21:01:00,
2013-09-16 16:06:00,91.6,63.9,28.53,NE,45,4.0,11.0,40,0.00,,,0.00,meteohub,2013-09-16 21:06:00,
2013-09-16 16:11:00,91.4,63.0,28.53,East,90,1.0,4.0,39,0.00,,,0.00,meteohub,2013-09-16 21:11:00,
2013-09-16 16:16:00,91.6,63.1,28.52,NE,45,3.0,4.0,39,0.00,,,0.00,meteohub,2013-09-16 21:16:00,
2013-09-16 16:21:00,91.6,63.1,28.52,SE,135,1.0,5.0,39,0.00,,,0.00,meteohub,2013-09-16 21:21:00,
2013-09-16 16:26:00,91.9,63.5,28.52,NE,45,5.0,5.0,39,0.00,,,0.00,meteohub,2013-09-16 21:26:00,
2013-09-16 16:31:00,93.6,63.3,28.51,East,90,14.0,14.0,37,0.00,,,0.00,meteohub,2013-09-16 21:31:00,
2013-09-16 16:36:00,92.7,61.9,28.51,East,90,13.0,15.0,36,0.00,,,0.00,meteohub,2013-09-16 21:36:00,
2013-09-16 16:41:00,93.4,62.4,28.50,SE,135,15.0,15.0,36,0.00,,,0.00,meteohub,2013-09-16 21:41:00,
2013-09-16 16:46:00,92.7,62.6,28.51,East,90,8.0,15.0,37,0.00,,,0.00,meteohub,2013-09-16 21:46:00,
2013-09-16 16:51:00,91.6,63.1,28.51,East,90,9.0,15.0,39,0.00,,,0.00,meteohub,2013-09-16 21:51:00,
2013-09-16 16:56:00,90.9,62.4,28.51,East,90,11.0,15.0,39,0.00,,,0.00,meteohub,2013-09-16 21:56:00,
2013-09-16 17:01:00,90.5,63.0,28.51,SE,135,5.0,11.0,40,0.00,,,0.00,meteohub,2013-09-16 22:01:00,
2013-09-16 17:06:00,90.1,63.3,28.51,North,0,4.0,11.0,41,0.00,,,0.00,meteohub,2013-09-16 22:06:00,
2013-09-16 17:12:00,90.0,63.1,28.53,SW,225,3.0,11.0,41,0.00,,,0.00,meteohub,2013-09-16 22:12:00,
2013-09-16 17:17:00,86.2,67.6,28.53,WSW,248,11.0,18.0,54,0.00,,,0.00,meteohub,2013-09-16 22:17:00,
2013-09-16 17:22:00,82.6,68.2,28.52,NW,315,10.0,18.0,62,0.00,,,0.00,meteohub,2013-09-16 22:22:00,
2013-09-16 17:27:00,81.9,69.4,28.53,North,0,8.0,18.0,66,0.00,,,0.00,meteohub,2013-09-16 22:27:00,
2013-09-16 17:32:00,79.9,70.0,28.53,North,0,8.0,14.0,72,0.00,,,0.00,meteohub,2013-09-16 22:32:00,
2013-09-16 17:37:00,78.6,68.0,28.53,NW,315,2.0,13.0,70,0.00,,,0.00,meteohub,2013-09-16 22:37:00,
2013-09-16 17:42:00,77.7,68.7,28.54,West,270,8.0,13.0,74,0.00,,,0.00,meteohub,2013-09-16 22:42:00,
2013-09-16 17:47:00,77.0,70.7,28.54,North,0,11.0,11.0,81,0.00,,,0.00,meteohub,2013-09-16 22:47:00,
2013-09-16 17:52:00,75.2,70.3,28.54,North,0,9.0,17.0,85,0.01,,,0.01,meteohub,2013-09-16 22:52:00,
2013-09-16 17:57:00,73.2,68.7,28.56,NW,315,5.0,17.0,86,0.02,,,0.02,meteohub,2013-09-16 22:57:00,
2013-09-16 18:02:00,72.7,70.2,28.56,NW,315,8.0,17.0,92,0.06,,,0.06,meteohub,2013-09-16 23:02:00,
2013-09-16 18:07:00,72.7,70.5,28.57,North,0,8.0,13.0,93,0.06,,,0.06,meteohub,2013-09-16 23:07:00,
2013-09-16 18:12:00,72.5,71.1,28.57,North,0,6.0,13.0,95,0.06,,,0.06,meteohub,2013-09-16 23:12:00,
2013-09-16 18:17:00,71.8,70.3,28.58,NW,315,10.0,15.0,95,0.11,,,0.11,meteohub,2013-09-16 23:17:00,
2013-09-16 18:22:00,70.7,69.3,28.58,WNW,293,10.0,15.0,95,0.15,,,0.15,meteohub,2013-09-16 23:22:00,
2013-09-16 18:27:00,69.6,68.4,28.58,NW,315,4.0,15.0,96,0.31,,,0.31,meteohub,2013-09-16 23:27:00,
2013-09-16 18:32:00,68.9,68.0,28.59,NW,315,1.0,15.0,97,0.51,,,0.51,meteohub,2013-09-16 23:32:00,
2013-09-16 18:37:00,69.1,68.7,28.58,North,0,2.0,15.0,99,0.56,,,0.56,meteohub,2013-09-16 23:37:00,
2013-09-16 18:42:00,68.5,68.2,28.58,North,0,6.0,12.0,99,0.80,,,0.80,meteohub,2013-09-16 23:42:00,
2013-09-16 18:47:00,68.4,68.0,28.59,NE,45,11.0,12.0,99,0.86,,,0.86,meteohub,2013-09-16 23:47:00,
2013-09-16 18:52:00,68.7,68.4,28.58,East,90,14.0,14.0,99,0.92,,,0.93,meteohub,2013-09-16 23:52:00,
2013-09-16 18:57:00,67.8,67.3,28.57,NE,45,15.0,20.0,98,0.96,,,0.99,meteohub,2013-09-16 23:57:00,
2013-09-16 19:02:00,67.8,67.5,28.57,North,0,8.0,20.0,99,0.97,,,1.02,meteohub,2013-09-17 00:02:00,
2013-09-16 19:07:00,68.2,67.8,28.57,North,0,1.0,20.0,99,0.98,,,0.01,meteohub,2013-09-17 00:07:00,
2013-09-16 19:12:00,68.4,68.0,28.57,NE,45,4.0,18.0,99,0.97,,,0.01,meteohub,2013-09-17 00:12:00,
2013-09-16 19:17:00,68.7,68.4,28.57,NE,45,1.0,9.0,99,0.93,,,0.02,meteohub,2013-09-17 00:17:00,
2013-09-16 19:22:00,68.9,68.5,28.57,NE,45,1.0,6.0,99,0.83,,,0.02,meteohub,2013-09-17 00:22:00,
2013-09-16 19:27:00,69.1,68.7,28.57,NW,315,1.0,4.0,99,0.67,,,0.02,meteohub,2013-09-17 00:27:00,
2013-09-16 19:32:00,69.4,69.1,28.58,West,270,0.0,1.0,99,0.53,,,0.02,meteohub,2013-09-17 00:32:00,
2013-09-16 19:37:00,69.8,69.4,28.58,NE,45,0.0,1.0,99,0.39,,,0.04,meteohub,2013-09-17 00:37:00,
2013-09-16 19:42:00,69.8,69.4,28.57,WNW,293,1.0,1.0,99,0.24,,,0.04,meteohub,2013-09-17 00:42:00,
2013-09-16 19:47:00,70.0,69.4,28.57,North,0,1.0,1.0,98,0.20,,,0.04,meteohub,2013-09-17 00:47:00,
2013-09-16 19:52:00,70.0,68.7,28.57,North,0,1.0,1.0,96,0.12,,,0.04,meteohub,2013-09-17 00:52:00,
2013-09-16 19:57:00,70.0,68.7,28.57,North,0,1.0,4.0,96,0.07,,,0.04,meteohub,2013-09-17 00:57:00,
2013-09-16 20:02:00,70.3,69.1,28.57,West,270,1.0,4.0,96,0.05,,,0.05,meteohub,2013-09-17 01:02:00,
2013-09-16 20:07:00,70.3,69.1,28.57,North,0,0.0,2.0,96,0.04,,,0.05,meteohub,2013-09-17 01:07:00,
2013-09-16 20:12:00,70.3,69.1,28.57,SW,225,1.0,1.0,96,0.04,,,0.05,meteohub,2013-09-17 01:12:00,
2013-09-16 20:17:00,70.5,69.6,28.57,NW,315,3.0,3.0,97,0.02,,,0.05,meteohub,2013-09-17 01:17:00,
2013-09-16 20:22:00,70.7,69.4,28.57,NW,315,0.0,4.0,96,0.04,,,0.06,meteohub,2013-09-17 01:22:00,
2013-09-16 20:27:00,70.9,69.6,28.58,WSW,248,4.0,4.0,96,0.05,,,0.07,meteohub,2013-09-17 01:27:00,
2013-09-16 20:32:00,71.1,69.8,28.58,West,270,2.0,5.0,96,0.05,,,0.07,meteohub,2013-09-17 01:32:00,
2013-09-16 20:37:00,71.1,69.8,28.58,SW,225,3.0,5.0,96,0.05,,,0.08,meteohub,2013-09-17 01:37:00,
2013-09-16 20:43:00,71.4,70.2,28.59,SW,225,4.0,5.0,96,0.05,,,0.08,meteohub,2013-09-17 01:43:00,
2013-09-16 20:48:00,71.6,71.1,28.59,SW,225,7.0,7.0,98,0.06,,,0.09,meteohub,2013-09-17 01:48:00,
2013-09-16 20:53:00,71.8,70.9,28.60,SW,225,8.0,8.0,97,0.07,,,0.11,meteohub,2013-09-17 01:53:00,
2013-09-16 20:58:00,71.6,70.3,28.60,SW,225,10.0,10.0,96,0.06,,,0.11,meteohub,2013-09-17 01:58:00,
2013-09-16 21:03:00,71.8,71.2,28.60,SW,225,7.0,12.0,98,0.07,,,0.12,meteohub,2013-09-17 02:03:00,
2013-09-16 21:08:00,71.8,71.2,28.60,West,270,8.0,12.0,98,0.07,,,0.12,meteohub,2013-09-17 02:08:00,
2013-09-16 21:13:00,72.0,71.4,28.61,West,270,8.0,12.0,98,0.08,,,0.13,meteohub,2013-09-17 02:13:00,
2013-09-16 21:18:00,72.0,71.4,28.61,SW,225,10.0,10.0,98,0.08,,,0.14,meteohub,2013-09-17 02:18:00,
2013-09-16 21:23:00,72.0,71.4,28.61,SW,225,8.0,10.0,98,0.08,,,0.14,meteohub,2013-09-17 02:23:00,
2013-09-16 21:28:00,72.0,71.4,28.61,West,270,2.0,10.0,98,0.08,,,0.15,meteohub,2013-09-17 02:28:00,
2013-09-16 21:33:00,72.0,71.4,28.61,North,0,1.0,10.0,98,0.09,,,0.17,meteohub,2013-09-17 02:33:00,
2013-09-16 21:38:00,71.8,71.4,28.61,North,0,1.0,8.0,99,0.08,,,0.17,meteohub,2013-09-17 02:38:00,
2013-09-16 21:43:00,71.6,71.2,28.61,West,270,2.0,7.0,99,0.08,,,0.18,meteohub,2013-09-17 02:43:00,
2013-09-16 21:48:00,71.8,71.4,28.60,NW,315,1.0,4.0,99,0.09,,,0.19,meteohub,2013-09-17 02:48:00,
2013-09-16 21:53:00,71.6,71.2,28.60,North,0,1.0,4.0,99,0.08,,,0.19,meteohub,2013-09-17 02:53:00,
2013-09-16 21:58:00,71.4,71.1,28.61,NW,315,1.0,4.0,99,0.08,,,0.20,meteohub,2013-09-17 02:58:00,
2013-09-16 22:03:00,71.6,71.2,28.60,NW,315,0.0,3.0,99,0.09,,,0.20,meteohub,2013-09-17 03:03:00,
2013-09-16 22:08:00,71.6,71.2,28.60,NW,315,8.0,8.0,99,0.09,,,0.21,meteohub,2013-09-17 03:08:00,
2013-09-16 22:13:00,71.6,71.2,28.59,North,0,3.0,8.0,99,0.08,,,0.21,meteohub,2013-09-17 03:13:00,
2013-09-16 22:18:00,71.6,71.2,28.61,NE,45,4.0,8.0,99,0.07,,,0.21,meteohub,2013-09-17 03:18:00,
2013-09-16 22:23:00,71.6,71.2,28.60,North,0,7.0,8.0,99,0.08,,,0.22,meteohub,2013-09-17 03:23:00,
2013-09-16 22:28:00,71.6,71.2,28.61,NE,45,2.0,12.0,99,0.07,,,0.22,meteohub,2013-09-17 03:28:00,
2013-09-16 22:33:00,71.6,71.2,28.61,SE,135,2.0,12.0,99,0.06,,,0.22,meteohub,2013-09-17 03:33:00,
2013-09-16 22:38:00,71.4,71.1,28.61,North,0,1.0,10.0,99,0.06,,,0.22,meteohub,2013-09-17 03:38:00,
2013-09-16 22:43:00,71.4,71.1,28.61,East,90,4.0,10.0,99,0.05,,,0.22,meteohub,2013-09-17 03:43:00,
2013-09-16 22:48:00,71.4,71.1,28.61,NE,45,1.0,10.0,99,0.04,,,0.22,meteohub,2013-09-17 03:48:00,
2013-09-16 22:53:00,71.6,71.2,28.61,North,0,1.0,8.0,99,0.04,,,0.22,meteohub,2013-09-17 03:53:00,
2013-09-16 22:58:00,71.4,71.1,28.61,North,0,0.0,6.0,99,0.02,,,0.22,meteohub,2013-09-17 03:58:00,
2013-09-16 23:01:00,71.6,71.2,28.61,North,0,0.0,2.0,99,0.01,,,0.22,meteohub,2013-09-17 04:01:00,
2013-09-16 23:02:00,71.6,71.2,28.61,NE,45,0.0,2.0,99,0.01,,,0.22,meteohub,2013-09-17 04:02:00,
2013-09-16 23:04:00,71.6,71.2,28.61,North,0,1.0,2.0,99,0.01,,,0.22,meteohub,2013-09-17 04:04:00,
2013-09-16 23:09:00,71.8,71.4,28.61,NE,45,0.0,1.0,99,0.01,,,0.22,meteohub,2013-09-17 04:09:00,
2013-09-16 23:14:00,71.6,71.2,28.62,NE,45,0.0,1.0,99,0.01,,,0.22,meteohub,2013-09-17 04:14:00,
2013-09-16 23:19:00,71.6,71.2,28.62,NE,45,1.0,1.0,99,0.01,,,0.22,meteohub,2013-09-17 04:19:00,
2013-09-16 23:24:00,71.6,71.2,28.62,NE,45,1.0,1.0,99,0.00,,,0.22,meteohub,2013-09-17 04:24:00,
2013-09-16 23:29:00,71.6,71.2,28.62,NE,45,2.0,2.0,99,0.00,,,0.22,meteohub,2013-09-17 04:29:00,
2013-09-16 23:34:00,71.6,71.2,28.62,North,0,1.0,2.0,99,0.00,,,0.22,meteohub,2013-09-17 04:34:00,
2013-09-16 23:39:00,71.6,71.2,28.62,North,0,1.0,2.0,99,0.00,,,0.22,meteohub,2013-09-17 04:39:00,
2013-09-16 23:44:00,71.6,71.2,28.61,North,0,1.0,2.0,99,0.00,,,0.22,meteohub,2013-09-17 04:44:00,
2013-09-16 23:49:00,71.6,71.2,28.62,NW,315,1.0,3.0,99,0.00,,,0.22,meteohub,2013-09-17 04:49:00,
2013-09-16 23:54:00,71.6,71.2,28.62,NE,45,2.0,8.0,99,0.00,,,0.22,meteohub,2013-09-17 04:54:00,
2013-09-16 23:59:00,71.8,71.4,28.63,North,0,1.0,8.0,99,0.00,,,0.22,meteohub,2013-09-17 04:59:00,